991  
ASUS42 KCHS 221811  
RWRCHS  
 
REGIONAL WEATHER ROUNDUP  
NATIONAL WEATHER SERVICE CHARLESTON SC  
200 PM EDT THU APR 22 2021  
 
NOTE: "FAIR" INDICATES FEW OR NO CLOUDS BELOW 12,000 FEET WITH NO  
SIGNIFICANT WEATHER AND/OR S TO VISIBILITY
.  
 
NOT ALL STATIONS ARE QUALITY CONTROLLED. USE DATA WITH CAUTION,  
ESPECIALLY DEWPOINT OBSERVATIONS.  
 
SCZ027-030-031-034>040-042>050-221900-   
..SOUTHEAST SOUTH CAROLINA
 
 
 
CITY SKY/WX TMP DP RH WIND PRES REMARKS
 
N CHARLESTON SUNNY 60 25 26 VRB6 30.17F  
6HR MIN TEMP: 46; 6HR MAX TEMP: 61;  
 
WATERFRONT PRK N/A 58 31 35 N8 30.03F  
MOUNT PLEASANT FAIR 59 23 25 NW6G14 30.17S  
JOHNS ISLAND FAIR 61 23 23 W9 30.18F  
PINOPOLIS N/A 55 28 35 VRB2 30.09F  
MONCKS CORNER FAIR 55 23 28 N9 30.18F  
SUMMERVILLE NOT AVBL  
BEAUFORT MCAS SUNNY 61 24 24 W5G17 30.19F  
6HR MIN TEMP: 48; 6HR MAX TEMP: 63;  
 
BEAUFORT ARPT FAIR 57 25 28 W5 30.19F  
HILTON HEAD IS SUNNY 59 23 25 N3G15 30.21F  
WALTERBORO CLEAR 59 21 23 NW3 30.19F  
ALLENDALE FAIR 61 14 16 VRB5G12 30.17F  
   
..SOUTHERN MIDLANDS AND PEE DEE
 
 
 
CITY SKY/WX TMP DP RH WIND PRES REMARKS
 
GEORGETOWN FAIR 59 21 23 NW10 30.16F  
KINGSTREE FAIR 59 12 15 CALM 30.17S  
ORANGEBURG SUNNY 60 19 20 MISG 30.17F  
6HR MIN TEMP: 43; 6HR MAX TEMP: 60;  
 
BARNWELL FAIR 61 18 18 VRB7G14 30.18F  
AIKEN FAIR 58 18 21 W10G18 30.18F  
MANNING FAIR 57 18 21 W9 30.17F  
COLUMBIA SUNNY 59 20 22 NW7 30.17F  
6HR MIN TEMP: 43; 6HR MAX TEMP: 60;  
 
SUMTER MOSUNNY 59 18 20 W14 30.15F  
FLORENCE SUNNY 61 17 18 W12G22 30.15F  
6HR MIN TEMP: 42; 6HR MAX TEMP: 61;  
 
MYRTLE BEACH SUNNY 58 23 26 NW17 30.15F  
N MYRTLE BEACH SUNNY 58 22 24 NW8G20 30.13F  
6HR MIN TEMP: 43; 6HR MAX TEMP: 58;  
 

 
 
GAZ063-065-086>088-099>101-113>116-118-119-134>141-150-221900-   
..SOUTHEAST GEORGIA
 
 
 
CITY SKY/WX TMP DP RH WIND PRES REMARKS
 
SAVANNAH ARPT MOSUNNY 60 22 23 NW8 30.20F  
6HR MIN TEMP: 45; 6HR MAX TEMP: 61;  
 
HUNTER AAF NOT AVBL  
FORT STEWART MOSUNNY 62 24 23 SW3 30.17F  
6HR MIN TEMP: 46; 6HR MAX TEMP: 62;  
 
STATESBORO SUNNY 60 19 20 NW6 30.20F  
SYLVANIA CLEAR 61 19 19 N5 30.21F  
CLAXTON FAIR 62 19 19 CALM 30.20F  
MILLEN FAIR 61 20 20 NE5 30.19F  
METTER FAIR 61 21 22 NW10 30.19F  
REIDSVILLE NOT AVBL  
   
..CSRA, CENTRAL AND FAR SOUTHEAST GEORGIA
 
 
 
CITY SKY/WX TMP DP RH WIND PRES REMARKS
 
THOMSON SUNNY 59 18 20 NW6 30.19F  
AUGUSTA-BUSH SUNNY 63 15 15 NW8 30.18F  
6HR MIN TEMP: 41; 6HR MAX TEMP: 63;  
 
AUGUSTA-DANIEL NOT AVBL  
SWAINSBORO FAIR 61 -15 4 W9 30.20F  
VIDALIA SUNNY 61 25 25 CALM 30.20F  
EASTMAN FAIR 60 24 24 N3 30.21F  
HAZLEHURST FAIR 61 23 23 NE5 30.19F  
ALMA SUNNY 60 22 23 CALM 30.19F  
6HR MIN TEMP: 44; 6HR MAX TEMP: 61;  
 
WAYCROSS SUNNY 62 24 23 E3 30.20F  
JESUP FAIR 63 21 20 CALM 30.20F  
BAXLEY FAIR 59 23 25 S3 30.20F  
BRUNSWICK SUNNY 60 34 38 E15 30.20F  
SAINT SIMONS SUNNY 58 36 43 NE14G21 30.20F  
6HR MIN TEMP: 49; 6HR MAX TEMP: 59;  
 

 
 
SCZ027-028-034-036>038-045-046-048>050-GAZ119-141-221900-   
..LAKE AND SUPPLEMENTAL COASTAL OBSERVATIONS
 
 
 
STATION/POSITION TIME TEMP WIND PRES WAVE SWELL
 
AIR SEA DIR/SP/G HT/PER HT/PER/DIR  
(UTC) (F) (DEG/KT/KT) (MB) (FT/S) (FT/S/D)  
WINYAH BAY NOT AVBL  
LAKE MURRAY NOT AVBL  
CHRLSTN HARBOR NOT AVBL  
ACE BASIN NERRS NOT AVBL  
FORT PULASKI NOT AVBL  
SAPELO ISLAND NOT AVBL  
 

 
 
ANZ835-935-AMZ111-154-330-350-352-354-370-450-454-472-221900-   
..C-MAN AND BUOY OBSERVATIONS
 
 
 
STATION/POSITION TIME TEMP WIND PRES WAVE SWELL
 
AIR SEA DIR/SP/G HT/PER HT/PER/DIR  
(UTC) (F) (DEG/KT/KT) (MB) (FT/S) (FT/S/D)  
BUOY 41004 NOT AVBL  
BUOY 41008 NOT AVBL  
FOLLY BEACH CMAN NOT AVBL  
CAPERS NEARSHORE NOT AVBL  
FRIPP NEARSHORE NOT AVBL  
 
 
STATION/POSITION TIME TEMP WIND PRES WAVE SWELL
 
AIR SEA DIR/SP/G HT/PER HT/PER/DIR  
(UTC) (F) (DEG/KT/KT) (MB) (FT/S) (FT/S/D)  
5E ST. MARYS GA NOT AVBL  
FRYING PAN BUOY NOT AVBL  
BUOY 41025 NOT AVBL  
CAPE LOOKOUT NC NOT AVBL  
BUOY 41002 NOT AVBL  
BUOY 41010 NOT AVBL  
ST AUGUSTINE FL NOT AVBL  
 

 
 
 
CLICK HERE TO GO TO PREVIOUS BULLETINS.

The Nexlab SC Page
The Nexlab GA Page Main Text Page